This is the latest recevied weather packets stored in our database for station/object KI5NXU. If no packets are shown the sender has not sent any weather packets the latest 10 day(s).
| Time | Temp. | Humidity | Pressure | Rain* | Wind** | Luminosity | Snow |
|---|---|---|---|---|---|---|---|
| 1777813715 | 16.11° C | 72% | 1020 hPa | 0 mm | - | 95 W/m² | - |
| 1777813412 | 16.11° C | 74% | 1020.2 hPa | 0 mm | - | 66 W/m² | - |
| 1777813109 | 15.56° C | 76% | 1020.1 hPa | 0 mm | - | 60 W/m² | - |
| 1777812807 | 15.56° C | 76% | 1020 hPa | 0 mm | - | 55 W/m² | - |
| 1777812504 | 15° C | 76% | 1019.7 hPa | 0 mm | - | 48 W/m² | - |
| 1777812202 | 15° C | 75% | 1020 hPa | 0 mm | - | 36 W/m² | - |
| 1777811900 | 14.44° C | 77% | 1019.8 hPa | 0 mm | - | 30 W/m² | - |
| 1777811599 | 14.44° C | 77% | 1019.8 hPa | 0 mm | - | 28 W/m² | - |
| 1777811293 | 13.89° C | 78% | 1019.6 hPa | 0 mm | - | 26 W/m² | - |
| 1777810991 | 14.44° C | 77% | 1019.5 hPa | 0 mm | - | 22 W/m² | - |
| 1777810688 | 13.89° C | 77% | 1019.6 hPa | 0 mm | - | 23 W/m² | - |
| 1777810385 | 14.44° C | 76% | 1019.4 hPa | 0 mm | - | 17 W/m² | - |
| 1777810080 | 14.44° C | 75% | 1019.3 hPa | 0 mm | - | 14 W/m² | - |
| 1777809778 | 14.44° C | 75% | 1019.3 hPa | 0 mm | - | 11 W/m² | - |
| 1777809475 | 14.44° C | 74% | 1019.4 hPa | 0 mm | - | 9 W/m² | - |
| 1777809173 | 14.44° C | 73% | 1019.2 hPa | 0 mm | - | 4 W/m² | - |
| 1777808870 | 15° C | 73% | 1019.2 hPa | 0 mm | - | 2 W/m² | - |
| 1777808567 | 14.44° C | 74% | 1019.3 hPa | 0 mm | - | 1 W/m² | - |
| 1777808264 | 14.44° C | 75% | 1019.3 hPa | 0 mm | - | 0 W/m² | - |
| 1777807963 | 14.44° C | 76% | 1019.3 hPa | 0 mm | - | 0 W/m² | - |
| 1777807660 | 14.44° C | 75% | 1018.9 hPa | 0 mm | - | 0 W/m² | - |
| 1777807358 | 14.44° C | 76% | 1019 hPa | 0 mm | - | 0 W/m² | - |
| 1777807053 | 14.44° C | 76% | 1019 hPa | 0 mm | - | 0 W/m² | - |
| 1777806751 | 14.44° C | 75% | 1018.9 hPa | 0 mm | - | 0 W/m² | - |
| 1777806446 | 14.44° C | 75% | 1018.9 hPa | 0 mm | - | 0 W/m² | - |
* Rain latest hour (hover to see other rain measurements)
** Current wind speed in m/s (hover to see current wind gust speed)